Location: D�ng L?c
(16.4833°N, 107.7000°E)
Time: 17:12:52
(UTC+00:00)

Daily predictions for brighter satellites

Satellite Brightness Start Highest point End
(mag) Time Altitude Azimuth Time Altitude Azimuth Time Altitude Azimuth
S3M 4.0 12:01:24 10° N 12:07:48 76° E 12:14:09 10° S
Cosmos 2263 Rocket 4.1 12:08:20 10° NE 12:09:40 11° ENE 12:10:59 10° E
DELTA 2 R/B (1) 3.5 12:04:17 10° SW 12:09:50 76° SE 12:15:23 10° NE
SJ-11-01 4.3 12:08:33 10° SSE 12:13:09 67° ENE 12:17:46 10° N
SL-16 R/B 2.4 12:12:39 10° SSW 12:18:17 75° WNW 12:23:56 10° NNE
HJ-1C 3.5 12:15:24 10° S 12:18:40 74° WSW 12:21:59 10° NNW
CZ-2C R/B 3.3 12:14:12 10° SSE 12:19:59 75° ENE 12:25:39 10° N
ARGOS 3.5 12:15:06 10° SSE 12:20:13 47° ENE 12:25:23 10° N
Cosmos 1818 3.5 12:15:32 10° S 12:20:50 61° ESE 12:26:10 10° NNE
USA 215 3.3 12:15:58 10° NE 12:22:18 54° SE 12:28:38 10° SSW
CZ-2C R/B 4.1 12:19:21 10° NNE 12:23:53 44° E 12:28:23 10° S
Meteor 2-14 Rocket 4.5 12:18:41 10° S 12:24:41 59° E 12:30:43 10° NNE
Meteor 2-21 4.4 12:19:14 10° S 12:25:21 66° E 12:31:28 10° NNE
Centaur D-1A AC-32 3.3 12:15:39 10° WNW 12:25:25 49° SW 12:27:59 19° SE
Cosmos 1726 Rocket 3.9 12:21:19 10° N 12:25:36 47° E 12:28:45 17° SSE
GPS 2-15 Rocket1 3.7 12:21:17 10° WNW 12:26:10 59° N 12:30:10 15° E
Cosmos 883 Rocket 4.5 12:23:47 10° N 12:29:59 67° E 12:36:14 10° SSE
ATLAS 5 CENTAUR R/B 1.2 12:29:33 10° SSW 12:33:32 86° ESE 12:37:34 10° NNE
SL-08 RB Rocket 4.0 12:31:59 23° SE 12:34:20 43° ENE 12:38:33 10° N
CZ-2C R/B 2.5 12:30:48 10° NNE 12:36:05 82° E 12:41:18 10° S
Cosmos 858 Rocket 4.4 12:31:04 10° N 12:36:19 76° ENE 12:40:10 19° SSE
GPS 2-18 Rocket1 2.9 12:33:03 10° W 12:36:42 79° NNW 12:38:41 25° ENE
Resurs 01 Rocket 3.8 12:37:51 10° ENE 12:37:51 10° ENE 12:38:12 10° ENE
Cosmos 1626 3.7 12:34:10 10° SSW 12:37:35 36° W 12:41:00 10° NNW
Cosmos 1244 Rocket 4.4 12:32:55 10° S 12:39:00 73° E 12:45:07 10° N
Intelsat 5-2 Rocket 2.5 12:39:08 10° WNW 12:41:45 42° NNE 12:42:10 38° NE
BREEZE-M DEB (TANK) 4.3 12:41:03 10° NNW 12:46:06 26° NE 12:47:41 21° ENE
Hubble Space Telescope 0.9 12:42:14 10° SW 12:46:13 48° SSE 12:46:54 43° ESE
Cosmos 1898 Rocket 4.2 12:42:16 10° NNW 12:47:17 51° WSW 12:52:08 11° S
GEOS 3 Rocket 3.6 12:43:03 10° NNE 12:48:26 88° ESE 12:53:45 10° SSW
Ariane Rocket 3.0 12:48:39 20° SSE 12:52:11 87° W 12:57:17 10° NNW
IRS-1A Rocket 4.2 12:51:14 21° SSE 12:55:05 89° WSW 13:00:36 10° NNW
Meteor 1-21 Rocket 4.4 12:54:34 27° SSE 12:57:37 55° E 13:03:21 10° NNE
NOSS 3-1 (C) 4.2 12:50:10 10° NNW 12:58:38 76° ENE 13:03:45 29° SE
Palapa B4 Rocket 4.2 12:50:38 10° WSW 12:59:22 57° SSE 13:01:28 39° ESE
Cosmos 2058 Rocket 2.9 12:56:14 10° N 13:00:42 82° E 13:01:59 46° SSE
Cosmos 1626 Rocket 3.7 12:59:00 19° S 13:02:10 75° W 13:06:36 10° N
MOS 1 4.2 13:01:16 28° SSE 13:04:24 88° W 13:10:04 10° NNW
H-2A R/B 3.4 12:59:41 10° SSW 13:04:40 39° W 13:09:43 10° NNW
EXPRESS MD2 4.2 13:01:07 10° NNW 13:05:12 68° NE 13:07:28 41° ESE
Cosmos 2322 Rocket 4.1 13:00:59 10° SW 13:05:49 30° WNW 13:10:39 10° N
Intelsat 5-1 Rocket 3.4 13:07:50 10° W 13:10:20 20° SW 13:10:20 20° SW
USA 186 3.7 13:09:58 23° SW 13:11:03 28° W 13:13:58 10° NW
SPOT 3 Rocket 3.6 13:11:49 53° E 13:12:17 55° ENE 13:17:21 10° N
Timation 1 Rocket 4.3 13:06:35 10° NNW 13:12:33 84° WSW 13:14:43 42° S
Resurs 1-3 3.9 13:13:32 51° NE 13:13:32 51° NE 13:17:18 10° N
USA 229 DEB 3.9 13:05:31 10° NNW 13:13:07 82° ENE 13:16:15 40° SSE
USA 229 3.9 13:05:36 10° NNW 13:13:13 81° ENE 13:16:20 41° SSE
NOSS 3-3 (A) 3.6 13:12:42 33° S 13:15:11 64° ESE 13:20:55 10° NNE
NOSS 3-3 (C) 3.6 13:13:23 40° S 13:15:17 63° ESE 13:21:02 10° NNE
BREEZE M DEB (TANK) 3.8 13:20:06 29° NNE 13:20:06 29° NNE 13:23:16 10° NE
NOSS 3-1 (A) 4.2 13:15:16 10° NNW 13:23:43 71° ENE 13:26:40 46° SE
COSMOS 2428 4.2 13:27:57 22° NE 13:27:57 22° NE 13:30:06 10° NE
CZ-3A R/B 3.5 13:08:17 10° SW 13:25:33 41° S 13:26:03 41° SSE
Cosmos 2298 Rocket 3.9 13:20:57 10° N 13:26:14 74° ENE 13:26:14 74° ENE
Cosmos 2322 3.6 13:26:58 42° SSW 13:28:59 89° WNW 13:34:43 10° NNE
Milstar 3 Cent rocket 2.6 13:27:48 10° WNW 13:32:35 53° SSW 13:32:54 52° SSW
Cosmos 2285 Rocket 4.3 13:27:38 10° NNW 13:33:50 63° WSW 13:35:43 44° SSW
Cosmos 2333 4.3 13:39:19 48° SW 13:40:48 70° WNW 13:46:25 10° N
Cosmos 2219 Rocket 3.1 13:44:18 38° NNE 13:44:18 38° NNE 13:47:40 10° NNE
Nadezhda 1 Rocket 4.3 13:37:08 10° N 13:42:27 52° NE 13:42:27 52° NE
Cosmos 2360 Rocket 4.1 13:39:11 10° SW 13:43:53 27° WNW 13:48:36 10° NNW
Atlas Centaur 2 4.3 13:39:15 10° NW 13:43:54 23° N 13:48:32 12° NE
Cosmos 2333 Rocket 2.6 13:51:57 56° N 13:51:57 56° N 13:56:23 10° NNE
Cosmos 2263 Rocket 2.6 13:48:16 10° NNW 13:53:24 55° W 13:53:24 55° W
Resurs 01 Rocket 3.9 14:15:25 23° NW 14:15:25 23° NW 14:17:20 10° NNW
H-2A ROCKET BODY 4.5 14:54:53 10° WNW 15:02:38 71° NNE 15:59:45 10° ESE
CZ-4C R/B 4.2 18:22:56 10° N 18:30:17 38° ENE 18:30:20 38° ENE
ADEOS II 4.5 18:57:11 10° NNE 18:58:26 18° NNE 18:58:26 18° NNE
COSMOS 2406 4.5 19:29:33 37° NNE 19:29:33 37° NNE 19:32:53 10° NNE
Hubble Space Telescope 3.8 19:36:10 12° ENE 19:36:10 12° ENE 19:36:35 10° E
Cosmos 2082 Rocket 3.1 19:44:08 43° E 19:44:08 43° E 19:49:12 10° NE
Meteor 1-11 Rocket 4.1 19:52:31 57° N 19:52:31 57° N 19:56:52 10° N
IDEFIX/ARIANE 42P 3.3 19:48:00 10° NNE 19:51:43 49° NNE 19:51:43 49° NNE
Cosmos 2233 Rocket 3.9 19:54:03 77° NNE 19:54:03 77° NNE 19:59:45 10° N
Cosmos 676 Rocket 4.5 20:00:52 56° N 20:00:52 56° N 20:04:56 10° NNE
CZ-3B R/B 3.1 20:00:48 61° WSW 20:02:34 86° SSE 20:07:14 10° ENE
Cosmos 1833 Rocket 3.2 20:07:02 47° NNW 20:07:02 47° NNW 20:11:23 10° N
ARIANE 5 R/B 4.2 20:01:38 10° NNW 20:03:44 22° NNW 20:03:44 22° NNW
Cosmos 2221 Rocket 4.0 20:10:02 10° N 20:14:02 58° ENE 20:14:02 58° ENE
CZ-4C R/B 4.2 20:11:27 10° NW 20:15:19 27° WNW 20:15:19 27° WNW
Cosmos 1900 4.2 20:21:58 82° N 20:21:58 82° N 20:26:40 10° NNE
Tsikada Rocket 3.9 20:16:15 10° N 20:22:40 83° W 20:25:05 41° S
COSMOS 2441 4.4 20:30:29 10° N 20:35:09 55° WNW 20:35:09 55° WNW
H-2A R/B 2.1 20:34:35 42° SSE 20:36:07 85° ENE 20:40:35 10° N
deb Chang Zheng 4 3.5 20:33:33 10° NNE 20:37:48 83° ESE 20:38:33 60° S
CZ-3 R/B 4.2 19:44:08 10° WNW 20:38:13 78° NNE 20:49:11 10° ESE
MSX 4.2 20:38:24 10° N 20:43:44 42° WNW 20:44:40 39° W
CZ-3A R/B 2.6 20:43:53 27° NW 20:45:42 54° NNE 20:55:47 10° E
Cosmos 1464 Rocket 4.0 20:44:07 19° S 20:48:52 88° E 20:55:16 10° N
NATO 3D Rocket 4.4 20:45:05 21° WNW 20:49:38 54° N 20:54:50 10° ENE
CZ-4B R/B 4.0 20:48:22 10° SE 20:51:02 22° ENE 20:53:43 10° NNE
GPS 2-14 Rocket1 3.0 20:51:59 43° WNW 20:53:06 63° N 20:57:14 10° ENE
CENTAUR R/B 4.4 20:50:12 10° SSE 20:53:50 19° ESE 20:57:40 10° ENE
Ariane H10+ 4.3 20:51:30 30° SSW 20:53:56 43° SSE 21:19:06 10° E
Cosmos 2034 Rocket 4.3 20:48:02 10° S 20:54:08 64° E 21:00:12 10° NNE
Cosmos 1544 3.3 20:52:58 31° SSE 20:54:31 65° E 20:58:03 10° NNE
Cosmos 1743 2.9 20:55:04 47° W 20:55:04 47° W 20:58:39 10° N
SWAS 4.4 20:55:26 46° SW 20:56:28 64° WNW 21:00:42 10° N
Cosmos 1656 3.8 20:53:01 10° N 20:58:26 72° ENE 21:03:53 10° SSE
Meteor 1-23 Rocket 4.3 20:54:28 10° N 21:00:13 85° E 21:06:01 10° S
PSLV R/B 4.3 20:59:21 10° N 21:03:15 34° WNW 21:03:59 32° W
SAR-Lupe-4 4.4 21:01:49 10° SSE 21:05:16 51° ENE 21:08:44 10° N
Landsat 5 3.8 21:05:43 31° SW 21:07:06 41° W 21:10:57 10° NNW
GPS 2-12 Rocket1 3.1 21:04:48 21° WNW 21:07:43 70° N 21:12:10 10° E
DELTA 2 R/B (1) 3.9 21:02:57 10° NW 21:08:32 70° NE 21:14:07 10° ESE
Cosmos 1484 Rocket 3.5 21:05:37 10° NNE 21:09:21 50° E 21:13:02 10° S
Cosmos 1378 Rocket 3.5 21:06:52 10° N 21:11:16 86° W 21:15:41 10° S
NOSS 3-2 (C) 4.5 21:07:33 10° S 21:12:26 35° ESE 21:17:30 10° NE
Hubble Space Telescope 0.7 21:11:34 21° WNW 21:14:10 63° SSW 21:18:15 10° SE
Cosmos 1782 Rocket 3.6 21:14:24 16° SSW 21:17:54 62° W 21:22:19 10° N
ERS-2 3.9 21:22:04 15° WNW 21:22:04 15° WNW 21:23:27 10° WNW
CZ-4B R/B 3.9 21:17:05 10° NNE 21:21:14 85° ESE 21:25:10 10° S
CZ-2C R/B 3.2 21:18:02 10° NNW 21:22:09 30° WNW 21:24:31 19° WSW
SAR-Lupe-1 4.0 21:19:01 10° SSE 21:22:33 89° WSW 21:26:08 10° NNW
Palapa B4 Rocket 4.5 21:20:06 21° WSW 21:22:38 33° SSW 21:28:56 10° SE
SWIFT 3.1 21:22:29 11° WNW 21:26:25 48° N 21:30:33 10° ENE
Cosmos 2082 Rocket 3.9 21:26:01 13° W 21:27:54 15° WNW 21:31:06 10° NNW
NOSS 3-2 (A) 3.1 21:25:34 13° SSW 21:30:20 73° WNW 21:36:02 10° NNE
Cosmos 1674 Rocket 4.3 21:26:58 10° NNW 21:30:47 31° W 21:34:35 10° SSW
Cosmos 921 Rocket 2.9 21:30:20 10° NNW 21:34:41 84° W 21:38:58 10° S
Cosmos 1689 Rocket 3.5 21:32:46 10° SSE 21:35:35 41° ENE 21:38:25 10° N
Cosmos 1842 4.4 21:32:59 10° N 21:36:47 48° E 21:40:35 10° SSE
Cosmos 1697 Rocket 2.6 21:41:29 10° NNW 21:47:04 75° WSW 21:52:38 10° S
Okean 2 3.3 21:43:02 10° N 21:47:06 84° W 21:51:10 10° S
H-2A R/B 2.9 21:44:01 10° NNE 21:48:16 66° ESE 21:52:21 10° S
Okean 2 Rocket 3.0 21:45:41 10° S 21:50:04 75° W 21:54:27 10° N
Delta 198 3.4 21:45:32 10° WNW 21:50:08 83° NNE 21:54:04 10° ESE
Cosmos 1975 4.3 21:47:43 10° SW 21:50:35 19° W 21:53:27 10° NW
Spot 2 4.4 21:45:58 10° N 21:50:46 68° WNW 21:55:48 10° SSW
Cosmos 1867 3.6 21:46:20 10° SSW 21:51:41 68° WNW 21:57:05 10° NNE
SL-27 R/B 3.2 21:48:45 10° SW 21:52:05 36° WNW 21:55:24 10° N
METEOR-M 4.2 21:47:21 10° N 21:52:36 62° WNW 21:57:51 10° SSW
ATLAS 2A CENTAUR R/B 3.3 21:52:29 10° WNW 21:55:36 35° N 22:04:55 10° ENE
Cosmos 1763 Rocket 4.5 21:53:35 10° N 21:58:43 54° ENE 22:03:53 10° SSE
SJ-12 4.0 21:55:18 10° N 21:59:19 58° WNW 22:03:20 10° SSW
ALOS 2.8 21:55:10 10° N 21:59:29 39° WNW 22:03:48 10° SW
